Voltar ao catálogo

STARLINK-35114

AtivoComunicaçõesVLEO
NORAD 65502·PAYLOAD·🇺🇸 United States

Lançado Sep 5, 2025 de Cape Canaveral Space Force Station

Loading…

Próximas Passagens (próximas 24 horas)

TLE

AtualizadoSource: CelesTrak SupGP

Época: Sep 14, 2026, 21:42 UTC

1 65502C 25198L   26257.90465278 -.00036193  00000+0 -10696-2 0  2570
2 65502  53.1564 108.0821 0001291  89.4785  18.6919 15.34401405    10

Acompanhe STARLINK-35114 em tempo real com AllMySat

Download on the App Store